DW5375 Weather Reports


time (UTC)temp
C
wind
direction
speed
KPH
gust
KPH
rain 1hr
cm
rain 24hr
cm
rain mn
cm
humidity
%
barometer
mb
20260506163104 -17 192 8.0 12.9 0.00 0.00 0.00 1019.8
20260506161557 -17 254 8.0 16.1 0.00 0.00 0.00 1019.8
20260506160049 -17 200 8.0 12.9 0.00 0.00 0.00 1020.0
20260506154547 -17 202 8.0 11.3 0.00 0.00 0.00 1020.0
20260506153040 -17 218 8.0 11.3 0.00 0.00 0.00 1019.9
20260506151536 -17 195 6.4 9.7 0.00 0.00 0.00 1019.8
20260506150032 -17 203 8.0 14.5 0.00 0.00 0.00 1019.5
20260506144527 -17 196 8.0 14.5 0.00 0.00 0.00 1019.4
20260506143026 -17 190 8.0 12.9 0.00 0.00 0.00 1019.1
20260506141518 -17 175 9.7 16.1 0.00 0.00 0.00 1019.0
20260506140013 -17 190 8.0 14.5 0.00 0.00 0.00 1019.2
20260506134510 -17 195 9.7 11.3 0.00 0.00 0.00 1019.1
20260506133005 -17 205 6.4 14.5 0.00 0.00 0.00 1018.8
20260506131504 -17 202 11.3 17.7 0.00 0.00 0.00 1018.6
20260506130057 -17 183 14.5 22.5 0.00 0.00 0.00 1018.5
20260506124552 -17 215 11.3 17.7 0.00 0.00 0.00 1018.7
20260506123047 -17 217 9.7 27.4 0.00 0.00 0.00 1018.6
20260506121542 -17 212 12.9 20.9 0.00 0.00 0.00 1018.7
20260506120039 -17 214 12.9 22.5 0.00 0.00 0.00 1018.4
20260506114534 -17 214 16.1 24.1 0.00 0.00 0.00 1018.1
20260506113031 -17 15 14.5 22.5 0.00 0.00 0.00 1018.0
20260506111525 -17 182 12.9 22.5 0.00 0.00 0.00 1018.1
20260506110021 -17 209 14.5 27.4 0.00 0.00 0.00 1017.9
20260506104517 -17 200 12.9 22.5 0.00 0.00 0.00 1017.8
20260506103012 -17 201 14.5 24.1 0.00 0.00 0.00 1017.6
20260506101507 -17 202 16.1 20.9 0.00 0.00 0.00 1017.4
20260506100004 -17 247 17.7 25.7 0.00 0.00 0.00 1017.3
20260506094613 -17 195 14.5 32.2 0.00 0.00 0.00 1017.3
20260506093054 -17 188 16.1 27.4 0.00 0.00 0.00 1017.3
20260506091551 -17 187 14.5 27.4 0.00 0.00 0.00 1017.1
20260506090045 -17 196 14.5 22.5 0.00 0.00 0.00 1017.0
20260506084541 -17 195 14.5 24.1 0.00 0.00 0.00 1017.0
20260506083038 -17 197 14.5 24.1 0.00 0.00 0.00 1017.0
20260506081532 -17 192 12.9 25.7 0.00 0.00 0.00 1017.0
20260506073019 -17 224 9.7 19.3 0.00 0.00 0.00 1016.5
20260506071516 -17 205 9.7 17.7 0.00 0.00 0.00 1016.4
20260506061604 -17 210 9.7 16.1 0.00 0.00 0.00 1016.2
20260506044539 -17 192 6.4 16.1 0.00 0.00 0.00 1015.6
20260506043027 -17 211 8.0 11.3 0.00 0.00 0.00 1015.5
20260506041528 -17 188 8.0 11.3 0.00 0.00 0.00 1015.4
20260506040018 -17 185 8.0 14.5 0.00 0.00 0.00 1015.2
20260506034513 -17 202 6.4 12.9 0.00 0.00 0.00 1015.0
20260506033009 -17 191 9.7 16.1 0.00 0.00 0.00 1014.9
20260506031507 -17 182 9.7 19.3 0.00 0.00 0.00 1014.9
20260506030104 -17 196 11.3 17.7 0.00 0.00 0.00 1014.8
20260506024614 -17 167 11.3 22.5 0.00 0.00 0.00 1014.8
20260506023054 -17 199 11.3 17.7 0.00 0.00 0.00 1014.9
20260506021555 -17 180 14.5 20.9 0.00 0.00 0.00 1014.9
20260506020042 -17 198 11.3 19.3 0.00 0.00 0.00 1014.9
20260506014537 -17 192 12.9 17.7 0.00 0.00 0.00 1014.9
20260506013037 -17 192 9.7 16.1 0.00 0.00 0.00 1015.0
20260506011548 -17 207 12.9 17.7 0.00 0.00 0.00 1015.1
20260506010027 -17 209 12.9 16.1 0.00 0.00 0.00 1015.1
20260506004534 -17 201 11.3 16.1 0.00 0.00 0.00 1015.1
20260506003015 -17 196 11.3 14.5 0.00 0.00 0.00 1015.1
20260506001512 -17 210 11.3 14.5 0.00 0.00 0.00 1015.2
20260506000007 -17 205 11.3 14.5 0.00 0.00 0.00 1015.4
20260505234502 -17 202 11.3 17.7 0.00 0.00 0.00 1015.5
20260505233058 -17 204 12.9 16.1 0.00 0.00 0.00 1015.7
20260505231555 -17 200 11.3 16.1 0.00 0.00 0.00 1015.8
20260505230052 -17 186 14.5 19.3 0.00 0.00 0.00 1015.9
20260505224545 -17 201 11.3 14.5 0.00 0.00 0.00 1016.0
20260505223040 -17 203 9.7 14.5 0.00 0.00 0.00 1016.1
20260505221536 -17 209 11.3 16.1 0.00 0.00 0.00 1016.2
20260505220048 -17 213 11.3 12.9 0.00 0.00 0.00 1016.3
20260505214532 -17 196 11.3 12.9 0.00 0.00 0.00 1016.4
20260505213024 -17 200 11.3 16.1 0.00 0.00 0.00 1016.4
20260505211518 -17 203 9.7 11.3 0.00 0.00 0.00 1016.5
20260505210014 -17 208 9.7 11.3 0.00 0.00 0.00 1016.6
20260505204510 -17 188 9.7 11.3 0.00 0.00 0.00 1016.7
20260505203008 -17 205 9.7 11.3 0.00 0.00 0.00 1016.7
20260505201600 -17 175 8.0 11.3 0.00 0.00 0.00 1016.7
20260505200056 -17 188 8.0 12.9 0.00 0.00 0.00 1016.6
20260505194559 -17 184 8.0 11.3 0.00 0.00 0.00 1016.7
20260505193047 -17 207 9.7 11.3 0.00 0.00 0.00 1016.7
20260505191542 -17 215 6.4 11.3 0.00 0.00 0.00 1016.7
20260505190038 -17 207 4.8 9.7 0.00 0.00 0.00 1016.6
20260505184534 -17 185 8.0 11.3 0.00 0.00 0.00 1016.7
20260505183038 -17 196 6.4 11.3 0.00 0.00 0.00 1016.6
20260505181528 -17 213 6.4 9.7 0.00 0.00 0.00 1016.6
20260505180024 -17 215 6.4 8.0 0.00 0.00 0.00 1016.5
20260505174516 -17 186 4.8 11.3 0.00 0.00 0.00 1016.5
20260505173011 -17 192 8.0 11.3 0.00 0.00 0.00 1016.5
20260505171508 -17 188 8.0 11.3 0.00 0.00 0.00 1016.3
20260505170003 -17 203 9.7 12.9 0.00 0.00 0.00 1016.3
20260505164603 -17 200 8.0 11.3 0.00 0.00 0.00 1016.2